FW7658 Weather Reports


time (UTC)temp
C
wind
direction
speed
KPH
gust
KPH
rain 1hr
cm
rain 24hr
cm
rain mn
cm
humidity
%
barometer
mb
20260506061554 16 0 0.0 0.0 0.00 0.00 0.00 87 1015.8
20260506050115 15 0 0.0 0.0 0.00 0.00 0.00 85 1016.1
20260506044555 16 0 0.0 0.0 0.00 0.00 0.00 84 1016.2
20260506043059 16 0 0.0 0.0 0.00 0.00 0.00 83 1016.5
20260506041603 16 0 0.0 0.0 0.00 0.00 0.00 82 1016.6
20260506040055 16 0 0.0 0.0 0.00 0.00 0.00 81 1016.5
20260506034558 17 0 0.0 0.0 0.00 0.00 0.00 81 1016.5
20260506033055 17 0 0.0 0.0 0.00 0.00 0.00 80 1016.3
20260506031644 17 0 0.0 0.0 0.00 0.00 0.00 79 1016.3
20260506030059 17 0 0.0 0.0 0.00 0.00 0.00 79 1016.3
20260506023112 18 0 0.0 1.6 0.00 0.00 0.00 77 1016.5
20260506021554 18 0 0.0 0.0 0.00 0.00 0.00 77 1016.5
20260506020057 18 0 0.0 0.0 0.00 0.00 0.00 76 1016.5
20260506014554 18 0 0.0 4.8 0.00 0.00 0.00 74 1016.4
20260506013103 19 0 1.6 4.8 0.00 0.00 0.00 73 1016.1
20260506011604 19 162 0.0 4.8 0.00 0.00 0.00 72 1016.2
20260506010058 20 0 0.0 6.4 0.00 0.00 0.00 70 1016.3
20260506004559 20 152 0.0 12.9 0.00 0.00 0.00 70 1016.0
20260506003056 20 0 0.0 6.4 0.00 0.00 0.00 69 1016.1
20260506001600 20 0 0.0 9.7 0.00 0.00 0.00 68 1016.0
20260506000100 21 185 1.6 14.5 0.00 0.00 0.00 67 1016.2
20260505234553 21 169 1.6 16.1 0.00 0.00 0.00 66 1016.1
20260505233055 21 143 1.6 19.3 0.00 0.00 0.00 65 1015.8
20260505231553 22 318 3.2 14.5 0.00 0.00 0.00 64 1015.8
20260505230120 23 140 3.2 16.1 0.00 0.00 0.00 60 1015.7
20260505224555 23 140 8.0 16.1 0.00 0.00 0.00 60 1015.9
20260505223054 23 267 4.8 17.7 0.00 0.00 0.00 57 1015.7
20260505221603 24 170 6.4 19.3 0.00 0.00 0.00 57 1015.8
20260505220059 25 159 1.6 16.1 0.00 0.00 0.00 56 1015.7
20260505214553 25 174 3.2 12.9 0.00 0.00 0.00 54 1015.9
20260505213056 25 221 4.8 14.5 0.00 0.00 0.00 53 1015.9
20260505211603 25 207 4.8 17.7 0.00 0.00 0.00 54 1016.1
20260505210104 25 315 3.2 17.7 0.00 0.00 0.00 53 1015.9
20260505204603 26 210 3.2 16.1 0.00 0.00 0.00 51 1015.8
20260505203107 26 138 11.3 22.5 0.00 0.00 0.00 51 1015.6
20260505201555 26 178 4.8 19.3 0.00 0.00 0.00 53 1015.9
20260505200108 25 116 6.4 17.7 0.00 0.00 0.00 53 1015.9
20260505194554 26 136 3.2 17.7 0.00 0.00 0.00 51 1016.0
20260505193104 26 198 4.8 16.1 0.00 0.00 0.00 51 1016.3
20260505191607 26 237 3.2 17.7 0.00 0.00 0.00 54 1016.8
20260505190100 27 109 4.8 16.1 0.00 0.00 0.00 50 1017.1
20260505184559 26 0 4.8 16.1 0.00 0.00 0.00 51 1017.1
20260505183053 25 188 4.8 19.3 0.00 0.00 0.00 51 1016.9
20260505181559 26 147 4.8 16.1 0.00 0.00 0.00 51 1016.7
20260505180058 26 157 6.4 14.5 0.00 0.00 0.00 50 1017.0
20260505174607 26 153 4.8 17.7 0.00 0.00 0.00 53 1016.9
20260505173056 26 212 3.2 11.3 0.00 0.00 0.00 50 1016.8
20260505171557 25 195 3.2 14.5 0.00 0.00 0.00 51 1017.1
20260505170057 26 267 3.2 16.1 0.00 0.00 0.00 53 1017.2
20260505164600 26 0 1.6 12.9 0.00 0.00 0.00 53 1017.3
20260505163054 25 215 4.8 16.1 0.00 0.00 0.00 55 1017.6
20260505161554 25 140 6.4 16.1 0.00 0.00 0.00 54 1017.6
20260505153052 25 240 3.2 9.7 0.00 0.00 0.00 60 1017.9
20260505151556 24 149 3.2 12.9 0.00 0.00 0.00 61 1017.8
20260505150105 24 197 1.6 11.3 0.00 0.00 0.00 62 1017.8
20260505130110 20 163 1.6 4.8 0.00 0.00 0.00 76 1017.6
20260505124556 18 0 0.0 0.0 0.00 0.00 0.00 83 1017.6
20260505123102 17 0 0.0 0.0 0.00 0.00 0.00 89 1017.7
20260505121556 15 0 0.0 0.0 0.00 0.00 0.00 94 1017.6
20260505120104 13 0 0.0 0.0 0.00 0.00 0.00 95 1017.5
20260505114556 12 0 0.0 0.0 0.00 0.00 0.00 95 1017.4
20260505113112 12 0 0.0 0.0 0.00 0.00 0.00 95 1017.2
20260505111556 11 0 0.0 0.0 0.00 0.00 0.00 94 1017.2
20260505110116 11 0 0.0 0.0 0.00 0.00 0.00 94 1017.1
20260505101600 11 0 0.0 0.0 0.00 0.00 0.00 94 1016.5
20260505100053 11 0 0.0 0.0 0.00 0.00 0.00 94 1016.4
20260505094618 11 0 0.0 0.0 0.00 0.00 0.00 93 1016.4
20260505093058 11 0 0.0 0.0 0.00 0.00 0.00 93 1016.3
20260505091605 11 0 0.0 0.0 0.00 0.00 0.00 93 1016.2
20260505090105 11 0 0.0 0.0 0.00 0.00 0.00 93 1016.2
20260505084559 11 0 0.0 0.0 0.00 0.00 0.00 92 1016.1
20260505083105 11 0 0.0 0.0 0.00 0.00 0.00 92 1015.9
20260505081600 12 0 0.0 0.0 0.00 0.00 0.00 92 1015.8
20260505080053 12 0 0.0 0.0 0.00 0.00 0.00 91 1015.8
20260505074552 12 0 0.0 0.0 0.00 0.00 0.00 91 1015.7
20260505073058 12 0 0.0 0.0 0.00 0.00 0.00 91 1015.7
20260505071552 12 0 0.0 0.0 0.00 0.00 0.00 91 1015.7